Regional Weather Roundup
Issued by NWS

Home | Current Version | Previous Version | Text Only | Print | Product List | Glossary Off
Versions: 1 2 3 4 5 6 7 8 9 10 11 12 13 14 15 16 17 18 19 20 21 22 23 24 25 26 27 28 29 30 31 32 33 34 35 36 37 38 39 40 41 42 43 44 45 46 47 48 49 50

000
ASUS43 KLMK 171010
RWRKY
KENTUCKY REGIONAL WEATHER ROUNDUP
NATIONAL WEATHER SERVICE LOUISVILLE KY
600 AM EDT THU APR 17 2014

NOTE "FAIR" INDICATES FEW OR NO CLOUDS BELOW 12,000 FEET
WITH NO SIGNIFICANT WEATHER AND/OR OBSTRUCTIONS TO VISIBILITY.

KYZ001>023-026-027-061>063-070>075-171100-
WESTERN AND SOUTH CENTRAL KENTUCKY

CITY           SKY/WX    TMP DP  RH WIND       PRES   REMARKS
PADUCAH        CLEAR     39  32  76 CALM      30.21R
HENDERSON      CLEAR     39  28  65 SE5       30.23R
OWENSBORO      CLEAR     41  30  65 CALM      30.25R
HOPKINSVILLE   CLEAR     46  32  57 SE7       30.26R
BOWLING GREEN  CLEAR     46  31  55 S6        30.29R
GLASGOW        PTCLDY    47  31  53 S6        30.29R
$$

KYZ024-025-028>034-038-045-046-053-171100-
NORTH CENTRAL KENTUCKY

CITY           SKY/WX    TMP DP  RH WIND       PRES   REMARKS
LOUISVILLE/SDF MOCLDY    40  28  62 SE6       30.27R
LOUISVILLE/LOU PTCLDY    42  28  57 CALM      30.28R
FORT KNOX      MOCLDY    40  29  64 CALM      30.26R
$$

KYZ035>037-039>044-047>052-055>060-089>105-171100-
NORTHEAST KENTUCKY

CITY           SKY/WX    TMP DP  RH WIND       PRES   REMARKS
LEXINGTON      MOCLDY    42  26  53 SE7       30.30R
COVINGTON      PTCLDY    38  23  55 S6        30.28R WCI  33
FRANKFORT      MOCLDY    35  28  75 CALM      30.29R
$$

KYZ054-064>069-076>088-106>120-171100-
SOUTHEAST KENTUCKY

CITY           SKY/WX    TMP DP  RH WIND       PRES   REMARKS
JACKSON        PTCLDY    42  21  43 S5        30.33R
LONDON         PTCLDY    35  29  78 SE3       30.33R
SOMERSET       MOCLDY    43  28  56 S6        30.34R
MIDDLESBORO    CLEAR     32  30  92 CALM      30.38R
MONTICELLO     MOSUNNY   43  29  58 SE6       30.34R
$$




USA.gov is the U.S. government's official web portal to all federal, state and local government web resources and services.